www.pogodaiklimat.ru

Погода и климат >> Архив погоды >> Великобритания >> Тейн-Рендж


ПОГОДА в Тейн-Рендже

  • Прогноз погоды в Тейн-Рендже
  • Монитор погоды в Тейн-Рендже

АРХИВ ПОГОДЫ в Тейн-Рендже

Время (UTC), дата Ветер
(напр.,м/с)
 
Видим.   Явления Облачность Т
(С)
Тd
(С)
f
(%)
Тe
(С)
Тes
(С)
Комфортность P
(гПа)
Po
(гПа)
Тmin
(С)
Tmax
(С)
R
(мм)
R24
(мм)
S
(см)
07 19.06 Ю 3 40 км н/о +13.0 +9.2 78 +12 +12 1005.6 1005.1
08 19.06 ЮЗ 5 45 км н/о +14.5 +9.9 74 +13 +13 1005.2 1004.7
09 19.06 Ю 6 50 км н/о +15.6 +8.6 63 +14 +14 1004.9 1004.4
10 19.06 ЮЗ 6 50 км н/о +15.3 +9.0 66 +14 +14 1004.7 1004.2
11 19.06 ЮЗ 6 40 км н/о +15.8 +8.2 61 +14 +14 1004.5 1004.1
12 19.06 ЮЗ 7 50 км н/о +16.6 +8.6 59 +15 +15 1004.3 1003.8
13 19.06 ЮЗ 8
{13}
35 км н/о +16.8 +8.7 59 +15 +15 1004.1 1003.6
14 19.06 З 6
{13}
27 км в посл. час дождь н/о +14.6 +11.3 81 +13 +13 1004.3 1003.8
15 19.06 ЮЗ 7 30 км в посл. час дождь н/о +15.1 +8.6 65 +13 +13 1004.1 1003.6
16 19.06 ЮЗ 6 45 км в посл. час дождь н/о +15.7 +9.4 66 +14 +14 1003.5 1003.0
17 19.06 ЮЗ 5 30 км н/о +16.8 +8.9 60 +16 +16 1003.1 1002.6
18 19.06 З 5 50 км в посл. час дождь н/о +15.8 +7.8 59 +15 +15 1003.1 1002.7 +17.5 0.4
19 19.06 З 6 50 км в посл. час дождь н/о +13.2 +8.0 71 +11 +11 1003.5 1003.0
20 19.06 Ю 4 50 км н/о +13.7 +8.3 70 +12 +12 1003.6 1003.1
21 19.06 ЮЗ 3 50 км н/о +11.2 +8.3 82 +10 +10 1003.7 1003.2
22 19.06 ЮЗ 3 50 км н/о +9.9 +7.9 87 +8 +8 1003.6 1003.1
23 19.06 ЮЗ 2 50 км н/о +9.6 +8.0 90 +8 +8 1003.7 1003.2
00 20.06 ЮЗ 3 50 км н/о +9.4 +7.6 89 +7 +7 1003.6 1003.1 0.0
01 20.06 ЮЗ 3 50 км н/о +9.3 +7.8 90 +7 +7 1003.4 1003.0
02 20.06 ЮЗ 4 50 км н/о +9.5 +7.4 87 +7 +7 1003.1 1002.7
03 20.06 ЮЗ 2 35 км н/о +9.0 +7.3 89 +7 +7 1002.8 1002.3
04 20.06 С 1 45 км в посл. час дождь н/о +8.2 +7.0 92 +8 +8 1002.5 1002.0
05 20.06 ЮЗ 3 40 км н/о +8.3 +7.1 92 +6 +6 1002.6 1002.2
06 20.06 ЮЗ 4 45 км н/о +9.3 +7.5 89 +7 +7 1002.4 1002.0 +7.6 0.0
07 20.06 ЮЗ 4 27 км н/о +11.5 +7.5 76 +9 +9 1002.3 1001.9
08 20.06 ЮЗ 5 50 км н/о +13.0 +7.7 70 +11 +11 1002.3 1001.8
09 20.06 ЮЗ 6 40 км н/о +13.8 +6.6 62 +12 +12 1002.0 1001.5
10 20.06 ЮЗ 6 26 км ливневой дождь н/о +12.0 +7.2 72 +9 +9 1002.1 1001.6
11 20.06 ЮЗ 9 50 км в посл. час дождь н/о +14.7 +7.8 63 +12 +12 1002.0 1001.5
12 20.06 ЮЗ 8 50 км в посл. час дождь н/о +14.4 +8.0 65 +12 +12 1002.5 1002.0 0.2
13 20.06 СЗ 10
{13}
50 км н/о +14.2 +7.1 62 +12 +12 1003.1 1002.7
14 20.06 СЗ 7 45 км в посл. час дождь н/о +14.3 +7.9 65 +12 +12 1003.5 1003.0
15 20.06 З 9
{13}
40 км н/о +15.7 +5.7 51 +14 +14 1003.8 1003.4
16 20.06 З 7 40 км н/о +14.8 +7.0 60 +13 +13 1004.2 1003.8
17 20.06 З 9
{13}
40 км в посл. час дождь н/о +14.5 +5.5 55 +12 +12 1004.7 1004.2
18 20.06 З 8 50 км н/о +15.0 +6.3 56 +13 +13 1005.0 1004.5 +17.4 0.2
19 20.06 З 6 35 км н/о +13.8 +6.3 61 +12 +12 1005.7 1005.3
20 20.06 З 8 40 км н/о +12.8 +5.2 60 +10 +10 1006.2 1005.8
21 20.06 З 6 50 км н/о +11.1 +5.3 67 +8 +8 1006.8 1006.3
22 20.06 ЮЗ 5 40 км н/о +9.9 +5.6 75 +7 +7 1007.4 1006.9
23 20.06 ЮЗ 5 50 км н/о +9.6 +5.9 78 +7 +7 1008.0 1007.5
00 21.06 ЮЗ 3 50 км н/о +9.0 +5.6 79 +7 +7 1008.3 1007.8
01 21.06 ЮЗ 5 50 км н/о +8.9 +5.8 81 +5 +5 1008.6 1008.1
02 21.06 ЮЗ 4 40 км н/о +8.7 +6.2 84 +6 +6 1008.7 1008.2
03 21.06 ЮЗ 3 50 км н/о +8.8 +5.6 80 +6 +6 1009.0 1008.5
04 21.06 ЮЗ 3 50 км н/о +8.7 +5.6 81 +6 +6 1009.1 1008.6
05 21.06 ЮЗ 5 40 км н/о +9.5 +5.4 76 +6 +6 1009.6 1009.1
06 21.06 ЮЗ 4 50 км н/о +10.5 +6.2 75 +8 +8 1010.2 1009.7 +7.7
07 21.06 ЮЗ 5 40 км н/о +10.1 +5.9 75 +7 +7 1010.8 1010.3
08 21.06 З 5 17 км слаб. ливневой дождь н/о +10.6 +8.0 84 +8 +8 1011.7 1011.2
09 21.06 З 7 35 км в посл. час дождь н/о +11.3 +7.8 79 +8 +8 1012.4 1011.9
10 21.06 З 7 30 км н/о +14.0 +7.6 65 +12 +12 1012.9 1012.4
11 21.06 З 8
{13}
45 км в посл. час дождь н/о +13.2 +6.4 63 +11 +11 1013.6 1013.1
12 21.06 СЗ 8 40 км н/о +13.5 +6.1 61 +11 +11 1014.3 1013.8 0.2
13 21.06 СЗ 9 45 км н/о +15.1 +7.1 59 +13 +13 1015.1 1014.6
14 21.06 З 8
{16}
50 км н/о +13.6 +6.0 60 +11 +11 1015.8 1015.3
15 21.06 СЗ 9
{14}
30 км н/о +15.1 +6.4 56 +13 +13 1016.2 1015.8
16 21.06 СЗ 9
{13}
45 км н/о +15.4 +5.1 50 +13 +13 1016.6 1016.1
17 21.06 СЗ 8 50 км н/о +15.1 +5.7 53 +13 +13 1017.1 1016.6
18 21.06 З 8 30 км н/о +14.7 +5.7 55 +13 +13 1017.4 1016.9 +16.3 0.2
19 21.06 СЗ 6 50 км н/о +14.6 +2.7 45 +13 +13 1018.0 1017.5
20 21.06 З 3 50 км н/о +12.3 +5.0 61 +11 +11 1018.5 1018.0
21 21.06 Ю 1 50 км н/о +11.2 +4.3 62 +11 +11 1019.0 1018.5
22 21.06 ЮЗ 3 35 км н/о +7.8 +3.7 75 +5 +5 1019.4 1018.9
23 21.06 З 2 50 км н/о +8.0 +3.7 74 +6 +6 1019.6 1019.1
00 22.06 З 1 50 км н/о +8.3 +4.7 78 +8 +8 1019.9 1019.4
01 22.06 ЮЗ 2 50 км н/о +5.1 +1.8 79 +3 +3 1020.0 1019.5
02 22.06 Ю 3 50 км н/о +4.5 +2.6 87 +1 +1 1019.9 1019.4
03 22.06 Ю 2 50 км н/о +4.1 +3.1 93 +1 +1 1019.8 1019.3
04 22.06 Ю 3 50 км н/о +4.7 +4.2 97 +1 +1 1019.8 1019.3
05 22.06 Ю 3 50 км н/о +7.4 +6.3 93 +4 +4 1019.8 1019.3
06 22.06 ЮЗ 2 40 км н/о +9.0 +5.0 76 +7 +7 1019.7 1019.2 +3.0
07 22.06 Ю 3 40 км н/о +10.8 +6.6 75 +9 +9 1019.5 1019.1
08 22.06 ЮЗ 5 40 км н/о +13.5 +6.5 63 +12 +12 1019.5 1019.0
09 22.06 ЮЗ 6 45 км н/о +14.9 +6.3 56 +13 +13 1019.5 1019.0
10 22.06 ЮЗ 5 40 км н/о +16.7 +7.6 55 +16 +16 1019.1 1018.7
11 22.06 ЮЗ 5 35 км н/о +18.3 +7.6 50 +18 +18 1019.0 1018.5
12 22.06 ЮЗ 5 50 км н/о +17.9 +7.4 50 +18 +18 1018.9 1018.5
13 22.06 ЮЗ 6 50 км н/о +17.4 +7.4 52 +17 +17 1018.8 1018.3
14 22.06 Ю 8 30 км н/о +19.4 +9.1 51 +20 +20 1018.8 1018.3
15 22.06 ЮЗ 8 50 км н/о +17.8 +8.5 54 +17 +17 1018.9 1018.4
16 22.06 ЮЗ 5 50 км н/о +17.3 +8.6 57 +17 +17 1018.9 1018.4
17 22.06 З 5 50 км н/о +18.0 +8.7 55 +18 +18 1019.1 1018.6
18 22.06 В 3 50 км н/о +15.5 +9.9 69 +15 +15 1019.1 1018.6 +20.1
19 22.06 В 2 40 км н/о +15.3 +10.3 72 +15 +15 1019.5 1019.0
20 22.06 В 3 40 км морось с дождем н/о +13.3 +10.3 82 +12 +12 1020.1 1019.7
21 22.06 СВ 4 50 км слаб. морось с дождем н/о +12.7 +11.1 90 +11 +11 1020.6 1020.1
22 22.06 В 1 20 км слаб. ливневой дождь н/о +12.4 +10.7 89 +12 +12 1021.3 1020.8
23 22.06 С 1 50 км в посл. час дождь н/о +11.7 +10.7 94 +12 +12 1021.4 1021.0
00 23.06 СВ 1 40 км н/о +11.0 +10.2 95 +11 +11 1021.3 1020.8 0.8
01 23.06 С 2 12 км н/о +10.1 +9.4 95 +9 +9 1021.3 1020.8
02 23.06 С 1 23 км н/о +10.4 +9.8 96 +11 +11 1021.7 1021.3
03 23.06 ЮЗ 1 14 км слаб. ливневой дождь н/о +10.3 +9.8 97 +11 +11 1022.1 1021.6
04 23.06 СЗ 2 20 км слаб. дождь н/о +10.3 +9.9 97 +9 +9 1022.0 1021.5
05 23.06 С 1 30 км в посл. час дождь н/о +10.9 +10.6 98 +10 +10 1021.9 1021.4
06 23.06 С 2 35 км н/о +11.6 +11.1 97 +10 +10 1022.0 1021.5 +10.0 0.8
07 23.06 СВ 2 35 км н/о +12.4 +10.7 89 +11 +11 1022.6 1022.1
08 23.06 СВ 4 35 км н/о +13.8 +11.3 85 +12 +12 1022.9 1022.5
09 23.06 СВ 5 25 км н/о +13.0 +10.4 84 +11 +11 1022.9 1022.4
10 23.06 В 6 20 км н/о +14.4 +11.5 83 +13 +13 1023.1 1022.6
11 23.06 СВ 7 24 км н/о +14.5 +12.5 88 +12 +12 1023.1 1022.6
12 23.06 СВ 7 28 км н/о +14.6 +12.1 85 +12 +12 1023.0 1022.5
13 23.06 СВ 8 23 км н/о +14.5 +11.9 84 +12 +12 1022.6 1022.1
14 23.06 СВ 8 26 км н/о +14.5 +12.1 86 +12 +12 1022.5 1022.0
15 23.06 СВ 8 35 км н/о +14.6 +12.3 86 +12 +12 1022.3 1021.8
16 23.06 СВ 9 25 км н/о +14.5 +12.2 86 +12 +12 1022.1 1021.6
17 23.06 СВ 9 21 км н/о +14.0 +12.1 88 +11 +11 1021.8 1021.3
18 23.06 СВ 8 12 км слаб. ливневой дождь н/о +13.0 +11.6 91 +10 +10 1022.0 1021.5 +15.8 0.0
19 23.06 СВ 5 16 км в посл. час дождь н/о +13.0 +11.9 93 +11 +11 1022.1 1021.6
20 23.06 З 1 19 км н/о +13.6 +11.9 89 +15 +15 1022.3 1021.8
21 23.06 ЮВ 4 45 км н/о +14.1 +8.9 71 +13 +13 1022.8 1022.3
22 23.06 ЮВ 7 50 км н/о +14.1 +7.3 64 +12 +12 1023.0 1022.5
23 23.06 В 5 50 км н/о +12.9 +7.7 71 +11 +11 1023.1 1022.6
00 24.06 В 5 50 км н/о +12.4 +8.9 79 +10 +10 1023.4 1022.9 0.6
01 24.06 В 6 45 км н/о +12.3 +10.5 89 +10 +10 1023.9 1023.4
02 24.06 В 4 40 км н/о +11.9 +10.1 89 +10 +10 1023.6 1023.1
03 24.06 В 5 45 км н/о +12.1 +10.3 89 +10 +10 1023.2 1022.7
04 24.06 В 5 35 км в посл. час дождь н/о +12.0 +10.8 92 +10 +10 1023.0 1022.6
05 24.06 В 5 22 км н/о +12.5 +11.5 94 +10 +10 1023.2 1022.7
06 24.06 В 5 30 км н/о +12.7 +11.7 94 +10 +10 1023.2 1022.7 +11.8 0.6
07 24.06 В 6 28 км н/о +12.7 +11.6 93 +10 +10 1023.0 1022.6
08 24.06 В 6 15 км слаб. ливневой дождь н/о +12.5 +11.3 92 +10 +10 1022.6 1022.1
09 24.06 В 5 11 км дождь н/о +12.0 +11.3 95 +9 +9 1023.2 1022.7
10 24.06 В 5 7000 м слаб. морось н/о +11.9 +11.4 97 +9 +9 1023.1 1022.6
11 24.06 СВ 5 9000 м слаб. морось н/о +11.8 +11.4 97 +9 +9 1023.1 1022.6
12 24.06 СВ 7 8000 м в посл. час дождь н/о +11.9 +11.5 97 +9 +9 1022.9 1022.5 4
13 24.06 СВ 7 4800 м слаб. ливневой дождь н/о +11.9 +11.4 97 +9 +9 1022.9 1022.4
14 24.06 СВ 7 4800 м в посл. час дождь н/о +11.4 +11.0 97 +8 +8 1022.7 1022.2
15 24.06 СВ 8 8000 м слаб. морось н/о +11.3 +10.9 97 +8 +8 1022.6 1022.1
16 24.06 СВ 7 5000 м в посл. час дождь н/о +11.2 +10.7 97 +8 +8 1022.4 1021.9
17 24.06 СВ 8 4600 м в посл. час дождь н/о +11.3 +11.0 98 +8 +8 1022.1 1021.6
18 24.06 СВ 8 7000 м в посл. час дождь н/о +11.4 +11.0 97 +8 +8 1022.2 1021.7 +12.8 5
19 24.06 СВ 8 5000 м в посл. час дождь н/о +11.4 +11.1 98 +8 +8 1022.2 1021.7
20 24.06 СВ 8 5000 м слаб. ливневой дождь н/о +11.4 +11.2 99 +8 +8 1022.6 1022.1
21 24.06 СВ 7 10 км в посл. час дождь н/о +11.5 +11.2 98 +8 +8 1022.7 1022.3
22 24.06 С 4 20 км ливневой дождь н/о +11.6 +11.1 97 +9 +9 1023.3 1022.8
23 24.06 С 4 18 км дождь н/о +11.6 +10.8 95 +9 +9 1023.6 1023.1
00 25.06 С 4 35 км в посл. час дождь н/о +11.5 +10.7 95 +9 +9 1023.5 1023.1 2
01 25.06 С 4 29 км н/о +11.6 +10.6 94 +9 +9 1024.0 1023.6
02 25.06 С 4 50 км н/о +11.5 +10.6 94 +9 +9 1023.9 1023.5
03 25.06 СЗ 4 50 км н/о +11.5 +10.5 94 +9 +9 1024.0 1023.5
04 25.06 СЗ 5 35 км дым н/о +11.5 +10.6 94 +9 +9 1024.5 1024.0
05 25.06 СЗ 4 40 км н/о +11.6 +10.7 94 +9 +9 1024.5 1024.0
06 25.06 С 4 50 км н/о +11.9 +10.9 94 +10 +10 1025.0 1024.5 +11.3 2
07 25.06 С 4 45 км н/о +12.3 +11.2 93 +10 +10 1025.5 1025.0
08 25.06 С 3 30 км н/о +13.0 +11.4 90 +12 +12 1026.1 1025.6
09 25.06 СВ 4 50 км н/о +13.5 +11.4 87 +12 +12 1026.4 1025.9
10 25.06 С 4 50 км н/о +12.9 +11.2 89 +11 +11 1026.7 1026.2
11 25.06 С 4 40 км н/о +13.2 +11.1 87 +11 +11 1026.9 1026.4
12 25.06 С 7 22 км н/о +13.7 +10.6 82 +11 +11 1027.5 1027.0
13 25.06 С 5 40 км н/о +15.2 +11.1 77 +14 +14 1027.6 1027.1
14 25.06 СВ 4 35 км н/о +15.4 +10.2 71 +14 +14 1027.7 1027.2
15 25.06 СВ 3 26 км н/о +15.4 +10.9 75 +15 +15 1028.1 1027.6
16 25.06 В 4 24 км н/о +15.2 +11.5 79 +14 +14 1028.4 1027.9
17 25.06 СВ 3 25 км н/о +14.7 +9.9 73 +14 +14 1028.5 1028.0
18 25.06 СВ 4 40 км н/о +13.7 +8.8 72 +12 +12 1029.2 1028.8 +16.4
19 25.06 С 6 35 км н/о +12.9 +7.8 71 +11 +11 1029.5 1029.0
20 25.06 С 5 40 км н/о +11.6 +7.8 77 +9 +9 1029.8 1029.3
21 25.06 С 5 50 км н/о +9.7 +7.0 83 +7 +7 1030.4 1029.9
22 25.06 С 4 40 км н/о +8.2 +6.1 87 +5 +5 1030.8 1030.3
23 25.06 СЗ 4 45 км н/о +9.6 +7.1 84 +7 +7 1031.4 1030.9
00 26.06 С 3 50 км н/о +9.7 +6.9 83 +7 +7 1031.5 1031.0
01 26.06 СЗ 2 45 км н/о +9.5 +6.9 84 +8 +8 1031.3 1030.8
02 26.06 С 4 40 км н/о +9.1 +6.6 84 +6 +6 1031.4 1030.9
03 26.06 СЗ 3 40 км н/о +5.8 +4.2 89 +2 +2 1031.4 1030.9
04 26.06 З 2 20 км н/о +6.0 +5.3 95 +3 +3 1031.6 1031.1
05 26.06 З 2 50 км н/о +8.4 +7.0 91 +6 +6 1032.0 1031.5
06 26.06 З 4 50 км н/о +9.4 +7.2 86 +7 +7 1032.1 1031.6 +5.6
07 26.06 З 5 45 км н/о +10.3 +7.2 81 +7 +7 1032.4 1031.9

 

Местоположение метеостанции Тейн-Рендж (Великобритания): широта 57.82 долгота -3.97 высота над уровнем моря 4 м.

В архиве по умолчанию представлена погода в Тейн-Рендже за последнюю неделю. Архивные данные за месяц целиком и за предыдущие месяцы, начиная с января 2011 года, Вы можете получить, выбрав интересующий диапазон дат из раскрывающегося списка и нажав кнопку "Ввод!".


*Определитесь, кто Вы:
робот инопланетянин человек

Внимание! Время в таблицах - всемирное. Для получения местного времени необходимо прибавить поправку, которая равна 0 ч.

Смотрите также архив погоды в соседних городах и на ближайших метеорологических станциях:

Погода в Кинлоссе (Великобритания) (30 км)
Погода в Лоссимуте (Великобритания) (40 км)
Погода на Озере Гласкарнок (Великобритания) (55 км)
Погода на Алтнахарре (Великобритания) (58 км)
Погода на Авморе (Великобритания) (69 км)
Погода на Кайрнгорме (Великобритания) (80 км)
Погода в Уике (Великобритания) (87 км)
Погода в Олтбее (Великобритания) (98 км)
Погода в Абойне (Великобритания) (107 км)
Погода на Кэрнуэлле (Великобритания) (110 км)

Пояснения к столбцам:

Ветер - указаны скорость ветра в м/с - средняя за 10 мин, порывы в срок и между сроками (в фигурных скобках) и направление, откуда дует ветер: С - северный, СВ - северо-восточный, В - восточный, ЮВ - юго-восточный, Ю - южный, ЮЗ - юго-западный, З - западный, СЗ - северо-западный.
Видимость - горизонтальная дальность видимости в метрах или километрах. При видимости от 1 до 10 км при отсутствии осадков обычно наблюдается дымка, при ухудшении видимости до 1 км и менее - туман. В сухую погоду видимость может ухудшаться дымом, пылью или мглою.
Явления - указаны атмосферные явления, наблюдавшиеся в срок или в последний час перед сроком; фигурными скобками обозначены явления, наблюдавшиеся между сроками (за 1-3 часа до срока); квадратными скобками обозначены град или гололедные отложения с указанием их диаметра в мм.
Облачность - указаны через наклонную черту общая и нижняя облачность в баллах и высота нижней границы облаков в метрах; квадратными скобками обозначены формы облаков: Ci - перистые, Cs - перисто-слоистые, Cc - перисто-кучевые, Ac - высококучевые, As - высокослоистые, Sc - слоисто-кучевые, Ns - слоисто-дождевые, Cu - кучевые, Cb - кучево-дождевые. Подробнее классификацию облаков см. в Атласе облаков (PDF).
T - Температура воздуха - температура, измеренная на высоте 2 м над землей.
Td - Температура точки росы - температура, при понижении до которой содержащийся в воздухе водяной пар достигнет насыщения.
f - Относительная влажность воздуха - влажноcть воздуха, измеренная на высоте 2 м над землей.
Te - Эффективная температура - температура, которую ощущает одетый по сезону человек в тени. Характеристика душности погоды. При расчете учитывается влияние влажности воздуха и скорости ветра на теплоощущения человека.
Tes - Эффективная температура на солнце - температура, которую ощущает человек, с поправкой на солнечный нагрев. Характеристика знойности погоды. Зависит от высоты солнца над горизонтом, облачности и скорости ветра. Ночью, в пасмурную погоду, а также при ветре 12 м/с и более поправка равна нулю.
P - Атмосферное давление - приведенное к уровню моря атмосферное давление.
Po - Атмосферное давление - измеренное на уровне метеостанции атмосферное давление.
Tmin - Минимальная температура - минимум температуры воздуха на высоте 2 м над землей.
Tmax - Максимальная температура - максимум температуры воздуха на высоте 2 м над землей.
R - Количество осадков - Количество выпавших осадков за период времени, мм. При наведении курсора мыши на число - период времени, за который выпало указанное количество осадков.
R24 - Количество осадков - Количество выпавших осадков за 24 часа, мм.
S - Снежный покров - Высота снежного покрова, см. При наведении курсора мыши на число - состояние снежного покрова и степень покрытия местности в баллах.